ARIANE 44LP DEB, 25538

Orbit data source: Space-Track

ARIANE 44LP DEB, 25538 is space debris in HEO originally from a launch on Sun, 11 Dec 1988 UTC launched from the French Guiana (FRGUI). Debris objects in space refer to the collection of defunct objects orbiting the Earth. Examples of debris include non-operational satellites, rocket bodies, and fragments generated from explosions, collisions, or faulty payload assembly.

Loading next visibility...
Identifier
25538, 1988-109E
Orbit
HEO
Last TLE update
2 days ago
Origin
Manufacturer
Unknown
Mission
Spacecraft
Bus & Motor
Unknown
Mass
Unknown
Launch date (UTC)
1988-12-11 (37 years ago)
Launch vehicle
Unknown
Launch site
French Guiana (FRGUI)
Object type
Payload
Rocket body
Debris
Shape & HBR
Unknown
Radar Cross Section
Medium (>0.1 m² and <1 m²)

Expand to show TLE details & history

TLE from 2 days ago
0 ARIANE 44LP DEB
1 25538U 88109E   25182.07475091  .00000090  00000-0  19863-2 0  9998
2 25538   6.6281 259.3296 7197910  21.9636 108.5934  2.23879665218240
Epoch: 2025-07-01T01:47Z
TLE epoch observation values (Epoch: 2025-07-01T01:47:38.478Z)
Latitude
-0.438°
Longitude
136.87852°
Altitude
31,279.509 km
Speed
2.241 km/s
True Right ascension
05h 32m 39s
True Declination
0° 26' 15"
Sunlit
Object was in daylight at epoch
Visualization orbit readout
Latitude
-6.47338°
Longitude
-150.51992°
Altitude
14,330.27 km
Speed
4.727 km/s
Apparent Right ascension
10h 57m 34s
Apparent Declination
-14° 50' 46"
Sunlit
Object is in daylight
Visualization observer readout
Local Sidereal Time
01:33:50
Azimuth
64.925° ENE
Elevation
-47.733°
Doppler factor
1
Orbital elements
Apogee altitude
36,079.908 km
Perigee altitude
539.637 km
Semi-major axis
24,687.91 km
Eccentricity
0.71979
Inclination
6.6281°
RAAN
259.3296°
Arg. of periapsis
21.9636°
True anomaly
Unknown
Mean anomaly
108.5934°
Eccentric anomaly
Unknown
Mean motion
0.55952 °/min
Orbital period
643.41 mins
BSTAR
0.0019863
Loading maneuver chart data...
Loading SW <> Apogee altitude chart data...
Loading historical data...
Loading historical data...
Loading historical data...
Loading historical data...
Loading historical data...
Loading historical data...
Loading historical data...

ARIANE 44LP DEB Visibility forecast

Observer location: undefined°, undefined°

Span
Click to sort rows by Start time (UTC) header in descending order
Start Az.
Max El. time (UTC)
Max El. Az.
Max El.
End time (UTC)
End Az.
592 mins2025-07-03 15:18:57.937Z233.515° WSW2025-07-03 17:29:57.937Z183.002° SSW33.92°2025-07-04 01:10:57.937Z177.856° S
70 mins2025-07-04 12:36:57.937Z204.802° SW2025-07-04 12:58:57.937Z151.878° SSE26.747°2025-07-04 13:46:57.937Z131.256° SE
|